Tracking 29892 objects as of 21-Nov-2024
HD Live streaming from Space Station
objects crossing your sky now

STARLINK-4506

Track STARLINK-4506 now!
10-day predictions
STARLINK-4506 is classified as:


NORAD ID: 53554
Int'l Code: 2022-101AD
Perigee: 545.9 km
Apogee: 547.9 km
Inclination: 53.2 °
Period: 95.4 minutes
Semi major axis: 6917 km
RCS: Unknown
Launch date: August 19, 2022
Source: United States (US)
Launch site: AIR FORCE EASTERN TEST RANGE (AFETR)
Your satellite tracking list
Your tracking list is empty




NASA's NSSDC Master Catalog

Two Line Element Set (TLE):
1 53554U 22101AD  24325.57979162  .00004559  00000-0  30443-3 0  9990
2 53554  53.2163  32.4913 0001448 101.1522 258.9633 15.08829094124734
Source of the keplerian elements: AFSPC